SCP
0 0 0 0 0 0 0 0 0 0 0 0 0 0 0 0 0 0 0 0 0 0 0 0 0 0 0 -0 0 0 -0 -0 -0 -0 -0 0 0 -0
0 0 0 0 0 0 0 0 0 0 0 0 0 0 0 0 0 0 0 0 0 0 0 0 0 0 0 0 0 -0 -0 -0 -0 -0 0 -0 0 -0
0 0 0 -0 -0 -0 0 0 0 0 0 0 0 0 0 0 0 0 0 0 0 0 0 0 0 0 0 0 -0 -0 -0 -0 -0 -0 0 -0 -0 -0
0 0 0 0 -0 0 0 -0 0 0 0 0 0 0 0 0 0 0 0 0 0 0 -0 -0 -0 0 0 0 -0 -0 -0 -0 -0 -0 -0 -0 -0 -0
0 0 0 -0 -0 0 -0 0 0 0 0 0 0 0 0 0 0 0 0 0 0 0 0 -0 -0 0 0 -0 0 -0 0 -0 0 -0 -0 -0 -0 -0
0 0 0 0 -0 -0 -0 -0 0 0 0 0 0 0 0 0 0 0 0 0 0 0 0 0 -0 0 0 0 0 0 -0 0 0 -0 -0 -0 -0 -0
0 0 0 -0 -0 -0 0 0 -0 -0 0 0 0 0 0 0 0 0 0 0 0 0 0 0 0 0 0 0 0 -0 -0 0 0 -0 -0 -0 -0 -0
0 0 -0 -0 0 0 0 0 -0 -0 -0 0 0 0 0 0 0 0 0 0 0 0 0 0 0 0 0 0 0 -0 0 0 0 -0 -0 -0 -0 0
0 0 0 -0 0 0 0 0 0 -0 0 -0 0 0 0 0 0 0 0 0 0 0 0 0 0 0 0 0 0 -0 -0 -0 -0 -0 -0 -0 -0 0
0 0 0 0 0 0 0 0 0 0 0 -0 0 -0 0 0 0 0 0 0 0 0 0 0 0 0 -0 -0 0 0 -0 0 -0 -0 -0 -0 0 0
0 0 0 0 -0 -0 0 0 0 0 0 0 0 -0 0 0 0 0 0 0 0 0 0 0 0 -0 -0 0 -0 -0 -0 -0 -0 -0 -0 0 0 0
0 0 0 0 -0 -0 0 0 0 0 0 0 0 0 0 0 0 0 0 0 0 0 0 0 -0 -0 0 0 -0 0 -0 -0 -0 -0 -0 0 0 0
0 0 0 -0 -0 0 0 0 0 0 0 0 0 0 0 0 0 0 0 0 0 0 -0 -0 -0 0 0 0 -0 -0 -0 -0 -0 -0 -0 0 0 0
0 0 -0 -0 0 -0 0 0 0 0 0 0 0 0 0 0 0 0 0 0 0 0 -0 0 0 0 0 0 0 -0 -0 -0 -0 0 0 0 0 0
0 -0 -0 -0 -0 -0 0 0 0 0 0 0 0 0 0 0 0 0 0 0 0 0 0 0 0 0 0 0 0 0 -0 -0 0 0 0 0 0 0
-0 -0 -0 -0 -0 -0 0 0 0 0 0 0 0 0 0 0 0 -0 0 0 0 0 0 0 0 0 0 0 0 0 0 0 0 0 0 0 0 0
-0 0 0 0 0 0 0 0 0 0 0 0 0 0 0 0 0 0 0 0 0 0 0 0 0 0 0 0 0 0 0 0 0 0 0 0 0 0
0 -0 0 0 0 0 0 0 0 0 0 0 0 0 0 0 0 0 0 0 0 0 0 -0 0 0 0 -0 -0 0 0 0 0 0 0 0 0 0
-0 0 0 -0 0 0 0 0 0 0 0 0 0 -0 0 0 0 0 0 0 0 0 0 0 -0 -0 -0 0 0 0 0 0 0 0 0 0 0 0
0 0 0 0 0 0 0 -0 0 0 0 0 0 0 0 0 0 0 0 -0 -0 -0 -0 -0 0 0 0 0 0 0 0 0 0 0 0 0 0 0
0 0 -0 0 0 0 0 -0 0 0 0 0 0 0 0 0 0 -0 -0 -0 -0 -0 0 0 0 0 0 0 0 0 0 0 0 0 0 0 0 0
0 0 0 0 0 0 0 0 0 0 0 0 0 0 -0 -0 -0 -0 -0 0 0 -0 -0 -0 0 0 0 0 0 0 0 0 0 0 0 0 0 0
0 0 0 0 0 0 0 0 0 0 0 0 0 0 -0 -0 -0 0 -0 -0 -0 0 -0 -0 0 0 0 0 0 0 0 0 0 0 0 0 0 0
Wind_Speed_500mb
21 20 21 16 25 21 14 6 9 9 14 14 13 22 22 27 26 33 31 30 31 35 40 44 37 50 36 31 40 43 43 34 27 24 24 24 24 21
14 19 19 18 34 25 21 17 7 9 10 15 19 19 22 25 28 31 31 34 32 38 43 40 45 45 33 40 49 49 40 35 26 24 25 24 19 21
15 15 14 17 24 30 26 20 20 15 14 15 19 20 21 26 31 33 32 36 36 40 44 47 41 42 40 47 55 54 51 39 28 25 23 19 20 15
14 11 15 20 20 28 23 25 22 16 17 21 22 22 23 28 33 35 38 38 42 45 46 41 41 45 51 59 60 36 36 31 27 25 22 18 15 12
11 11 15 20 24 26 24 22 18 18 22 21 21 28 32 34 33 30 44 46 45 42 42 50 41 39 57 53 37 40 36 30 27 25 20 15 14 12
7 4 10 17 23 25 21 19 24 25 22 24 27 31 35 37 37 45 48 46 43 46 53 59 46 63 48 41 44 42 32 31 29 21 15 16 15 13
6 5 5 13 24 26 19 19 30 27 25 18 27 33 42 42 51 55 56 59 51 54 69 71 69 50 49 44 45 36 33 29 24 20 18 16 13 15
9 8 4 9 14 22 26 27 31 32 23 29 33 40 36 47 54 65 67 69 66 70 72 59 54 56 52 47 43 38 32 28 23 19 17 18 16 15
14 13 10 9 12 14 23 29 34 25 22 17 27 32 29 42 58 67 65 66 72 72 65 65 57 54 50 44 41 39 33 26 23 22 20 18 17 19
15 15 14 14 10 14 21 25 27 22 17 21 19 25 18 36 57 59 72 64 69 66 65 70 59 49 41 42 37 36 31 27 24 22 21 21 22 24
12 12 19 21 24 21 17 22 28 30 25 23 19 29 23 42 53 67 69 67 78 68 65 67 58 34 28 34 38 37 30 26 25 25 25 24 25 28
10 6 3 12 21 27 24 25 34 31 31 33 30 32 27 38 46 57 66 71 71 66 62 55 52 28 22 30 36 35 29 27 27 27 27 26 28 32
11 11 8 11 15 22 24 29 39 34 33 39 44 41 37 46 55 61 65 66 70 50 61 36 42 32 17 24 34 30 29 30 28 28 29 30 32 34
13 14 9 11 16 19 25 30 46 42 44 47 48 46 42 53 54 51 57 58 46 30 55 30 31 36 19 15 16 27 29 28 25 27 30 33 36 37
16 14 13 15 14 20 25 33 53 49 48 48 51 49 42 45 46 54 56 44 30 20 34 34 22 34 24 13 16 15 19 22 25 28 33 36 39 40
17 18 20 17 21 25 37 39 45 49 50 51 51 48 51 47 49 55 48 34 19 24 24 39 29 35 22 20 17 15 20 18 23 28 32 37 41 43
24 31 28 25 30 35 35 41 45 46 47 50 52 50 53 50 43 41 31 24 19 22 34 34 29 34 30 25 22 23 25 28 28 29 36 36 37 39
34 31 28 29 33 32 30 34 37 41 46 49 53 55 45 40 41 40 26 24 21 22 26 28 26 26 27 30 31 29 29 29 29 33 37 40 38 35
34 30 29 27 30 30 29 31 37 36 44 44 44 43 37 38 44 35 29 29 30 25 26 27 28 26 25 28 23 31 33 29 30 34 35 40 42 37
26 28 32 30 28 31 28 35 35 37 38 41 36 37 35 35 36 33 34 34 32 29 29 30 30 31 32 30 29 29 40 43 34 37 38 39 43 51
26 25 29 28 27 28 27 26 37 37 34 34 36 33 34 32 34 35 34 35 34 33 34 35 34 36 33 30 37 39 38 44 42 44 41 39 42 45
17 23 28 31 28 26 28 26 30 33 32 35 31 30 32 33 33 35 36 34 39 39 39 36 33 32 34 40 44 43 39 42 49 51 54 57 57 42
22 20 19 23 29 32 30 30 31 33 31 33 34 34 35 35 36 35 37 40 39 38 41 42 40 42 44 43 46 46 45 44 42 53 54 58 63 65
Wind_Direction_500mb
217 223 224 226 200 209 211 228 198 172 166 188 168 188 185 188 184 183 187 191 186 183 180 185 194 174 177 180 175 170 174 165 159 159 155 159 167 165
221 234 241 226 218 213 217 225 189 225 162 164 174 177 190 189 194 190 189 191 191 184 181 186 179 180 177 185 171 175 169 163 163 163 161 169 164 179
233 237 232 216 212 217 221 212 236 226 175 166 172 179 181 191 189 191 183 187 181 186 182 177 180 181 181 180 178 176 176 168 166 165 164 170 186 198
243 228 224 212 201 202 207 209 213 197 164 162 155 166 168 173 176 186 185 179 180 180 182 180 178 187 182 178 184 182 170 170 164 166 172 186 204 223
221 233 234 208 198 204 212 203 196 178 161 159 161 160 167 169 178 171 170 172 178 180 188 177 177 184 178 189 176 169 172 163 169 175 186 205 218 236
222 276 233 213 211 195 198 183 180 157 153 148 161 164 158 165 167 163 164 169 164 175 182 180 183 181 174 170 171 168 171 172 180 189 209 219 231 251
157 147 87 191 185 187 185 181 163 159 159 180 177 158 164 169 171 169 165 166 170 181 168 169 170 165 163 169 168 175 181 183 193 208 217 233 253 258
163 171 127 115 166 187 188 178 167 177 181 171 174 168 174 179 181 173 170 169 154 168 171 157 166 166 166 167 183 184 188 197 209 218 234 248 255 266
187 185 169 177 162 171 183 181 178 184 190 172 167 183 172 182 181 174 173 173 167 163 164 163 172 173 175 184 187 190 198 206 216 229 241 249 256 268
178 192 209 199 179 163 161 159 174 174 177 165 189 177 167 171 181 180 172 171 163 164 172 165 174 179 184 194 200 201 202 214 227 239 246 248 259 267
167 210 217 225 209 186 175 162 166 161 161 162 174 165 154 170 177 181 171 165 159 166 177 171 175 175 190 206 205 204 212 224 235 243 246 252 261 269
185 205 218 215 208 195 194 186 173 176 161 155 165 155 156 174 176 176 172 172 166 166 181 184 182 173 192 214 212 214 223 234 241 245 249 256 265 273
200 203 197 189 190 196 199 195 188 169 170 161 168 161 160 167 171 174 173 178 168 166 178 176 190 191 194 213 219 223 231 241 243 247 252 258 265 272
204 195 190 179 182 199 190 188 183 170 168 163 171 169 172 175 175 174 176 174 165 171 179 170 185 191 185 197 211 227 231 237 247 253 262 266 267 274
209 183 178 165 164 160 161 161 173 166 166 165 170 174 173 166 174 173 171 170 178 156 185 194 185 187 179 208 213 215 222 245 251 257 265 267 279 285
186 173 166 148 145 147 154 162 170 168 169 168 169 168 164 165 165 168 176 177 172 203 193 194 194 195 204 217 217 229 238 229 268 263 266 271 275 279
163 159 153 148 148 140 151 168 168 168 167 172 170 167 168 167 166 170 175 181 179 189 186 193 202 200 209 217 235 243 246 256 257 261 272 270 268 267
159 158 148 150 153 151 155 161 167 170 172 170 175 173 163 167 171 177 179 186 179 187 191 198 208 216 232 249 250 251 251 258 263 264 263 265 272 273
157 158 158 156 154 155 154 159 159 168 171 161 164 166 168 170 176 183 188 194 198 198 198 208 212 219 234 250 259 270 268 260 266 268 267 266 273 275
173 169 168 159 157 154 152 158 150 154 163 168 163 168 175 180 188 195 199 202 202 207 212 218 228 227 239 250 264 271 275 276 268 268 272 274 276 271
169 173 175 171 175 163 157 161 165 168 170 172 177 183 188 192 197 201 207 209 212 217 224 230 239 247 248 256 261 269 272 286 285 284 280 272 273 275
166 174 185 185 183 182 179 179 179 182 186 186 190 195 198 200 207 210 211 219 223 225 233 238 244 251 252 251 259 267 275 279 283 282 285 282 276 268
170 167 177 183 190 188 187 189 198 203 202 199 201 205 209 213 214 220 225 227 228 237 241 243 246 250 257 257 263 267 271 274 273 280 293 288 285 286
Wind_Speed_850mb
21 20 21 16 25 21 14 6 9 9 14 14 13 22 22 27 26 33 31 30 31 35 40 44 37 50 36 31 40 43 43 34 27 24 24 24 24 21
14 19 19 18 34 25 21 17 7 9 10 15 19 19 22 25 28 31 31 34 32 38 43 40 45 45 33 40 49 49 40 35 26 24 25 24 19 21
15 15 14 17 24 30 26 20 20 15 14 15 19 20 21 26 31 33 32 36 36 40 44 47 41 42 40 47 55 54 51 39 28 25 23 19 20 15
14 11 15 20 20 28 23 25 22 16 17 21 22 22 23 28 33 35 38 38 42 45 46 41 41 45 51 59 60 36 36 31 27 25 22 18 15 12
11 11 15 20 24 26 24 22 18 18 22 21 21 28 32 34 33 30 44 46 45 42 42 50 41 39 57 53 37 40 36 30 27 25 20 15 14 12
7 4 10 17 23 25 21 19 24 25 22 24 27 31 35 37 37 45 48 46 43 46 53 59 46 63 48 41 44 42 32 31 29 21 15 16 15 13
6 5 5 13 24 26 19 19 30 27 25 18 27 33 42 42 51 55 56 59 51 54 69 71 69 50 49 44 45 36 33 29 24 20 18 16 13 15
9 8 4 9 14 22 26 27 31 32 23 29 33 40 36 47 54 65 67 69 66 70 72 59 54 56 52 47 43 38 32 28 23 19 17 18 16 15
14 13 10 9 12 14 23 29 34 25 22 17 27 32 29 42 58 67 65 66 72 72 65 65 57 54 50 44 41 39 33 26 23 22 20 18 17 19
15 15 14 14 10 14 21 25 27 22 17 21 19 25 18 36 57 59 72 64 69 66 65 70 59 49 41 42 37 36 31 27 24 22 21 21 22 24
12 12 19 21 24 21 17 22 28 30 25 23 19 29 23 42 53 67 69 67 78 68 65 67 58 34 28 34 38 37 30 26 25 25 25 24 25 28
10 6 3 12 21 27 24 25 34 31 31 33 30 32 27 38 46 57 66 71 71 66 62 55 52 28 22 30 36 35 29 27 27 27 27 26 28 32
11 11 8 11 15 22 24 29 39 34 33 39 44 41 37 46 55 61 65 66 70 50 61 36 42 32 17 24 34 30 29 30 28 28 29 30 32 34
13 14 9 11 16 19 25 30 46 42 44 47 48 46 42 53 54 51 57 58 46 30 55 30 31 36 19 15 16 27 29 28 25 27 30 33 36 37
16 14 13 15 14 20 25 33 53 49 48 48 51 49 42 45 46 54 56 44 30 20 34 34 22 34 24 13 16 15 19 22 25 28 33 36 39 40
17 18 20 17 21 25 37 39 45 49 50 51 51 48 51 47 49 55 48 34 19 24 24 39 29 35 22 20 17 15 20 18 23 28 32 37 41 43
24 31 28 25 30 35 35 41 45 46 47 50 52 50 53 50 43 41 31 24 19 22 34 34 29 34 30 25 22 23 25 28 28 29 36 36 37 39
34 31 28 29 33 32 30 34 37 41 46 49 53 55 45 40 41 40 26 24 21 22 26 28 26 26 27 30 31 29 29 29 29 33 37 40 38 35
34 30 29 27 30 30 29 31 37 36 44 44 44 43 37 38 44 35 29 29 30 25 26 27 28 26 25 28 23 31 33 29 30 34 35 40 42 37
26 28 32 30 28 31 28 35 35 37 38 41 36 37 35 35 36 33 34 34 32 29 29 30 30 31 32 30 29 29 40 43 34 37 38 39 43 51
26 25 29 28 27 28 27 26 37 37 34 34 36 33 34 32 34 35 34 35 34 33 34 35 34 36 33 30 37 39 38 44 42 44 41 39 42 45
17 23 28 31 28 26 28 26 30 33 32 35 31 30 32 33 33 35 36 34 39 39 39 36 33 32 34 40 44 43 39 42 49 51 54 57 57 42
22 20 19 23 29 32 30 30 31 33 31 33 34 34 35 35 36 35 37 40 39 38 41 42 40 42 44 43 46 46 45 44 42 53 54 58 63 65
Wind_Direction_850mb
217 223 224 226 200 209 211 228 198 172 166 188 168 188 185 188 184 183 187 191 186 183 180 185 194 174 177 180 175 170 174 165 159 159 155 159 167 165
221 234 241 226 218 213 217 225 189 225 162 164 174 177 190 189 194 190 189 191 191 184 181 186 179 180 177 185 171 175 169 163 163 163 161 169 164 179
233 237 232 216 212 217 221 212 236 226 175 166 172 179 181 191 189 191 183 187 181 186 182 177 180 181 181 180 178 176 176 168 166 165 164 170 186 198
243 228 224 212 201 202 207 209 213 197 164 162 155 166 168 173 176 186 185 179 180 180 182 180 178 187 182 178 184 182 170 170 164 166 172 186 204 223
221 233 234 208 198 204 212 203 196 178 161 159 161 160 167 169 178 171 170 172 178 180 188 177 177 184 178 189 176 169 172 163 169 175 186 205 218 236
222 276 233 213 211 195 198 183 180 157 153 148 161 164 158 165 167 163 164 169 164 175 182 180 183 181 174 170 171 168 171 172 180 189 209 219 231 251
157 147 87 191 185 187 185 181 163 159 159 180 177 158 164 169 171 169 165 166 170 181 168 169 170 165 163 169 168 175 181 183 193 208 217 233 253 258
163 171 127 115 166 187 188 178 167 177 181 171 174 168 174 179 181 173 170 169 154 168 171 157 166 166 166 167 183 184 188 197 209 218 234 248 255 266
187 185 169 177 162 171 183 181 178 184 190 172 167 183 172 182 181 174 173 173 167 163 164 163 172 173 175 184 187 190 198 206 216 229 241 249 256 268
178 192 209 199 179 163 161 159 174 174 177 165 189 177 167 171 181 180 172 171 163 164 172 165 174 179 184 194 200 201 202 214 227 239 246 248 259 267
167 210 217 225 209 186 175 162 166 161 161 162 174 165 154 170 177 181 171 165 159 166 177 171 175 175 190 206 205 204 212 224 235 243 246 252 261 269
185 205 218 215 208 195 194 186 173 176 161 155 165 155 156 174 176 176 172 172 166 166 181 184 182 173 192 214 212 214 223 234 241 245 249 256 265 273
200 203 197 189 190 196 199 195 188 169 170 161 168 161 160 167 171 174 173 178 168 166 178 176 190 191 194 213 219 223 231 241 243 247 252 258 265 272
204 195 190 179 182 199 190 188 183 170 168 163 171 169 172 175 175 174 176 174 165 171 179 170 185 191 185 197 211 227 231 237 247 253 262 266 267 274
209 183 178 165 164 160 161 161 173 166 166 165 170 174 173 166 174 173 171 170 178 156 185 194 185 187 179 208 213 215 222 245 251 257 265 267 279 285
186 173 166 148 145 147 154 162 170 168 169 168 169 168 164 165 165 168 176 177 172 203 193 194 194 195 204 217 217 229 238 229 268 263 266 271 275 279
163 159 153 148 148 140 151 168 168 168 167 172 170 167 168 167 166 170 175 181 179 189 186 193 202 200 209 217 235 243 246 256 257 261 272 270 268 267
159 158 148 150 153 151 155 161 167 170 172 170 175 173 163 167 171 177 179 186 179 187 191 198 208 216 232 249 250 251 251 258 263 264 263 265 272 273
157 158 158 156 154 155 154 159 159 168 171 161 164 166 168 170 176 183 188 194 198 198 198 208 212 219 234 250 259 270 268 260 266 268 267 266 273 275
173 169 168 159 157 154 152 158 150 154 163 168 163 168 175 180 188 195 199 202 202 207 212 218 228 227 239 250 264 271 275 276 268 268 272 274 276 271
169 173 175 171 175 163 157 161 165 168 170 172 177 183 188 192 197 201 207 209 212 217 224 230 239 247 248 256 261 269 272 286 285 284 280 272 273 275
166 174 185 185 183 182 179 179 179 182 186 186 190 195 198 200 207 210 211 219 223 225 233 238 244 251 252 251 259 267 275 279 283 282 285 282 276 268
170 167 177 183 190 188 187 189 198 203 202 199 201 205 209 213 214 220 225 227 228 237 241 243 246 250 257 257 263 267 271 274 273 280 293 288 285 286